Weather History for KAQP - April, 2013

Change the Weather History Date:

Sunday, April 28, 2013

  Actual Average Record
Temperature  
Mean Temperature 62 °F -  
Max Temperature 75 °F 62 °F 89 °F (2001)
Min Temperature 46 °F 36 °F 21 °F (2008)
Degree Days  
Heating Degree Days 4    
Growing Degree Days 12 (Base 50)    
Moisture  
Dew Point 43 °F    
Average Humidity 54    
Maximum Humidity 82    
Minimum Humidity 25    
Precipitation  
Precipitation 0.00 in - - ()
Sea Level Pressure  
Sea Level Pressure 29.73 in    
Wind  
Wind Speed 11 mph (WSW)    
Max Wind Speed 17 mph    
Max Gust Speed 24 mph    
Visibility 10 miles    
Events      
Averages and records for this station are not official NWS values.
T = Trace of Precipitation, MM = Missing Value Source: NWS Daily Summary

Daily Weather History Graph

Daily Weather History Graph

Search for Another Location

Airport or City:

Trip Planner

Search our weather history database for the weather conditions in past years. The results will help you decide how hot, cold, wet, or windy it might be!

Date:

Astronomy

Apr. 28, 2013 Rise Set
Actual Time 6:16 AM CDT 8:26 PM CDT
Civil Twilight 5:44 AM CDT 8:59 PM CDT
Nautical Twilight 5:05 AM CDT 9:39 PM CDT
Astronomical Twilight 4:20 AM CDT 10:23 PM CDT
Moon No Moon Rise 8:29 AM CDT (4/28)
Length of Visible Light 15h 14m
Length of Day
14h 09m
Waning Gibbous, 88% of the Moon is Illuminated
Apr 28
Waning Gibbous
May 2
Last Quarter
May 9
New
May 17
First Quarter
May 24
Full

Hourly Weather History & Observations

Time (CDT) Temp. Windchill Dew Point Humidity Pressure Visibility Wind Dir Wind Speed Gust Speed Precip Events Conditions
12:13 AM 59.0 °F - 35.6 °F 42% 29.79 in 10.0 mi South 11.5 mph 17.3 mph N/A   Clear
12:34 AM 59.0 °F - 35.6 °F 42% 29.79 in 10.0 mi South 13.8 mph 18.4 mph N/A   Clear
12:53 AM 57.2 °F - 37.4 °F 48% 29.79 in 10.0 mi South 11.5 mph - N/A   Clear
1:13 AM 57.2 °F - 39.2 °F 51% 29.78 in 10.0 mi South 12.7 mph - N/A   Clear
1:33 AM 57.2 °F - 41.0 °F 55% 29.78 in 10.0 mi South 12.7 mph 18.4 mph N/A   Clear
1:54 AM 57.2 °F - 42.8 °F 59% 29.78 in 10.0 mi South 13.8 mph 20.7 mph N/A   Clear
2:13 AM 57.2 °F - 42.8 °F 59% 29.77 in 10.0 mi South 13.8 mph 18.4 mph N/A   Clear
2:34 AM 57.2 °F - 42.8 °F 59% 29.76 in 10.0 mi South 15.0 mph 20.7 mph N/A   Clear
2:53 AM 57.2 °F - 44.6 °F 63% 29.75 in 10.0 mi South 17.3 mph 21.9 mph N/A   Clear
3:13 AM 59.0 °F - 44.6 °F 59% 29.74 in 10.0 mi South 15.0 mph 24.2 mph N/A   Clear
3:34 AM 57.2 °F - 44.6 °F 63% 29.72 in 10.0 mi South 15.0 mph 23.0 mph N/A   Clear
3:53 AM 57.2 °F - 46.4 °F 67% 29.72 in 10.0 mi South 13.8 mph - N/A   Clear
4:14 AM 57.2 °F - 46.4 °F 67% 29.72 in 10.0 mi South 15.0 mph 18.4 mph N/A   Clear
4:33 AM 55.4 °F - 46.4 °F 72% 29.71 in 10.0 mi South 12.7 mph - N/A   Clear
4:54 AM 55.4 °F - 46.4 °F 72% 29.71 in 10.0 mi South 12.7 mph - N/A   Clear
5:13 AM 53.6 °F - 46.4 °F 77% 29.71 in 10.0 mi SSE 10.4 mph - N/A   Clear
5:33 AM 53.6 °F - 46.4 °F 77% 29.71 in 10.0 mi South 6.9 mph - N/A   Clear
5:53 AM 53.6 °F - 46.4 °F 77% 29.70 in 10.0 mi South 10.4 mph - N/A   Clear
6:13 AM 53.6 °F - 46.4 °F 77% 29.70 in 10.0 mi South 6.9 mph - N/A   Clear
6:33 AM 53.6 °F - 44.6 °F 72% 29.70 in 10.0 mi SSE 4.6 mph - N/A   Clear
6:53 AM 51.8 °F - 44.6 °F 76% 29.70 in 7.0 mi SSE 4.6 mph - N/A   Clear
7:14 AM 51.8 °F - 46.4 °F 82% 29.69 in 10.0 mi SSE 10.4 mph - N/A   Clear
7:33 AM 53.6 °F - 46.4 °F 77% 29.69 in 10.0 mi South 5.8 mph - N/A   Clear
7:53 AM 53.6 °F - 46.4 °F 77% 29.69 in 10.0 mi South 6.9 mph - N/A   Clear
8:14 AM 55.4 °F - 46.4 °F 72% 29.69 in 10.0 mi South 6.9 mph - N/A   Clear
8:33 AM 57.2 °F - 46.4 °F 67% 29.69 in 10.0 mi South 6.9 mph - N/A   Clear
8:53 AM 62.6 °F - 46.4 °F 55% 29.69 in 10.0 mi SSW 6.9 mph - N/A   Clear
9:13 AM 62.6 °F - 46.4 °F 55% 29.68 in 10.0 mi SSW 6.9 mph - N/A   Clear
9:33 AM 64.4 °F - 44.6 °F 49% 29.68 in 10.0 mi SSW 6.9 mph - N/A   Clear
9:53 AM 66.2 °F - 44.6 °F 46% 29.67 in 10.0 mi SSW 8.1 mph - N/A   Clear
10:13 AM 68.0 °F - 44.6 °F 43% 29.67 in 10.0 mi SSW 9.2 mph - N/A   Clear
10:33 AM 69.8 °F - 44.6 °F 40% 29.67 in 10.0 mi SW 9.2 mph - N/A   Clear
10:54 AM 71.6 °F - 42.8 °F 35% 29.67 in 10.0 mi WSW 6.9 mph - N/A   Clear
11:13 AM 71.6 °F - 42.8 °F 35% 29.67 in 10.0 mi WSW 8.1 mph - N/A   Clear
11:33 AM 73.4 °F - 37.4 °F 27% 29.67 in 10.0 mi WSW 9.2 mph - N/A   Clear
11:54 AM 75.2 °F - 37.4 °F 25% 29.66 in 10.0 mi South 3.5 mph - N/A   Clear
12:13 PM 75.2 °F - 37.4 °F 25% 29.66 in 10.0 mi WSW 3.5 mph - N/A   Clear
12:33 PM 75.2 °F - 37.4 °F 25% 29.67 in 10.0 mi West 5.8 mph - N/A   Clear
12:53 PM 75.2 °F - 37.4 °F 25% 29.67 in 10.0 mi NNW 8.1 mph - N/A   Clear
1:13 PM 75.2 °F - 39.2 °F 27% 29.69 in 10.0 mi NW 15.0 mph - N/A   Clear
1:34 PM 71.6 °F - 39.2 °F 31% 29.70 in 10.0 mi NW 17.3 mph 21.9 mph N/A   Clear
1:55 PM 71.6 °F - 39.2 °F 31% 29.69 in 10.0 mi NW 12.7 mph - N/A   Clear
2:13 PM 69.8 °F - 41.0 °F 35% 29.71 in 10.0 mi NW 15.0 mph - N/A   Clear
2:34 PM 68.0 °F - 42.8 °F 40% 29.73 in 10.0 mi WNW 12.7 mph - N/A   Clear
2:53 PM 69.8 °F - 42.8 °F 38% 29.70 in 10.0 mi North 9.2 mph - N/A   Clear
3:14 PM 69.8 °F - 41.0 °F 35% 29.71 in 10.0 mi NNW 10.4 mph - N/A   Clear
3:33 PM 69.8 °F - 41.0 °F 35% 29.73 in 10.0 mi NW 9.2 mph - N/A   Clear
3:53 PM 71.6 °F - 41.0 °F 33% 29.72 in 10.0 mi NNW 11.5 mph - N/A   Clear
4:14 PM 71.6 °F - 41.0 °F 33% 29.72 in 10.0 mi NW 10.4 mph - N/A   Clear
4:33 PM 71.6 °F - 41.0 °F 33% 29.73 in 10.0 mi NNW 11.5 mph - N/A   Clear
4:53 PM 68.0 °F - 42.8 °F 40% 29.74 in 10.0 mi NW 13.8 mph - N/A   Clear
5:13 PM 66.2 °F - 44.6 °F 46% 29.74 in 10.0 mi NW 11.5 mph - N/A   Clear
5:53 PM 66.2 °F - 44.6 °F 46% 29.75 in 10.0 mi North 10.4 mph - N/A   Clear
6:13 PM 64.4 °F - 44.6 °F 49% 29.75 in 10.0 mi North 13.8 mph - N/A   Clear
6:33 PM 60.8 °F - 46.4 °F 59% 29.76 in 10.0 mi NNW 13.8 mph - N/A   Clear
6:53 PM 60.8 °F - 46.4 °F 59% 29.76 in 10.0 mi NNW 10.4 mph - N/A   Clear
7:13 PM 59.0 °F - 46.4 °F 63% 29.76 in 10.0 mi NW 13.8 mph - N/A   Clear
7:33 PM 57.2 °F - 46.4 °F 67% 29.76 in 10.0 mi NNW 11.5 mph - N/A   Clear
7:54 PM 57.2 °F - 46.4 °F 67% 29.76 in 10.0 mi NNW 9.2 mph - N/A   Clear
8:13 PM 57.2 °F - 46.4 °F 67% 29.77 in 10.0 mi NNW 6.9 mph - N/A   Clear
8:33 PM 55.4 °F - 46.4 °F 72% 29.77 in 10.0 mi NNW 4.6 mph - N/A   Clear
8:53 PM 55.4 °F - 46.4 °F 72% 29.78 in 10.0 mi NW 6.9 mph - N/A   Clear
9:13 PM 55.4 °F - 46.4 °F 72% 29.79 in 10.0 mi North 10.4 mph - N/A   Clear
9:33 PM 55.4 °F - 46.4 °F 72% 29.80 in 10.0 mi North 9.2 mph - N/A   Clear
9:53 PM 53.6 °F - 42.8 °F 67% 29.82 in 10.0 mi North 12.7 mph 17.3 mph N/A   Clear
10:13 PM 53.6 °F - 37.4 °F 54% 29.82 in 10.0 mi North 13.8 mph 18.4 mph N/A   Clear
10:33 PM 53.6 °F - 35.6 °F 51% 29.83 in 10.0 mi North 10.4 mph - N/A   Clear
10:53 PM 51.8 °F - 37.4 °F 58% 29.84 in 10.0 mi North 9.2 mph - N/A   Clear
11:13 PM 50.0 °F - 37.4 °F 62% 29.84 in 10.0 mi North 9.2 mph - N/A   Clear
11:33 PM 48.2 °F - 35.6 °F 62% 29.84 in 10.0 mi North 10.4 mph - N/A   Clear
11:53 PM 46.4 °F 41.5 °F 35.6 °F 66% 29.84 in 10.0 mi North 10.4 mph - N/A   Clear